EW5635 Weather Reports


Display with metric or nautical units.
time (UTC)temp
F
wind
direction
speed
MPH
gust
MPH
rain 1hr
in
rain 24hr
in
rain mn
in
humidity
%
barometer
mb
20260507062609 47 135 0.0 2.0 0.00 0.01 0.00 99 1010.9
20260507061547 47 23 0.0 2.0 0.00 0.01 0.00 99 1010.7
20260507060543 46 0.0 0.0 0.00 0.01 0.00 99 1010.7
20260507055600 45 0.0 0.0 0.00 0.01 0.00 99 1010.8
20260507054537 45 0.0 0.0 0.00 0.01 0.00 99 1010.7
20260507053535 45 68 0.0 2.0 0.00 0.01 0.00 99 1010.6
20260507052532 45 0.0 0.0 0.00 0.01 0.00 99 1010.5
20260507051549 44 0.0 2.0 0.00 0.01 0.00 99 1010.3
20260507050607 45 2 2.0 4.0 0.00 0.01 0.00 99 1010.4
20260507045544 45 19 2.0 2.0 0.00 0.01 0.00 99 1010.3
20260507044521 45 9 1.0 2.0 0.00 0.01 0.00 99 1010.3
20260507043518 44 0.0 2.0 0.00 0.01 0.00 99 1010.2
20260507042515 44 7 0.0 2.0 0.00 0.01 0.00 98 1010.1
20260507041613 44 23 1.0 2.0 0.00 0.01 0.00 98 1010.0
20260507040631 45 0 1.0 2.0 0.00 0.01 0.00 98 1009.9
20260507035608 45 0 0.0 2.0 0.00 0.01 0.00 98 1010.0
20260507034605 46 0.0 0.0 0.00 0.01 0.00 98 1010.0
20260507033623 45 0.0 2.0 0.00 0.01 0.00 98 1010.0
20260507032600 46 16 1.0 2.0 0.00 0.01 0.00 98 1009.9
20260507031557 47 10 1.0 2.0 0.00 0.01 0.00 98 1009.9
20260507030555 46 4 1.0 2.0 0.00 0.01 0.00 98 1009.9
20260507025551 47 30 0.0 2.0 0.00 0.01 0.00 98 1009.9
20260507024551 46 18 1.0 2.0 0.00 0.01 0.00 97 1009.9
20260507023545 46 11 1.0 2.0 0.00 0.01 0.00 97 1009.9
20260507022542 48 18 1.0 4.0 0.00 0.01 0.00 97 1010.0
20260507021541 48 23 1.0 2.0 0.00 0.01 0.00 97 1010.0
20260507020536 48 23 0.0 2.0 0.00 0.01 0.00 97 1010.0
20260507015532 48 9 1.0 2.0 0.00 0.01 0.00 97 1009.9
20260507014531 48 16 2.0 4.0 0.00 0.01 0.00 96 1009.8
20260507013528 48 357 2.0 4.0 0.00 0.01 0.00 96 1009.7
20260507012546 49 4 1.0 2.0 0.00 0.01 0.00 96 1009.7
20260507011522 50 15 1.0 2.0 0.00 0.01 0.00 96 1009.6
20260507010519 50 21 1.0 2.0 0.00 0.01 0.00 95 1009.6
20260507005516 49 23 0.0 2.0 0.00 0.01 0.00 95 1009.7
20260507004635 50 0.0 0.0 0.00 0.01 0.00 94 1009.6
20260507003612 51 0 0.0 2.0 0.00 0.02 0.00 95 1009.8
20260507002608 51 0.0 2.0 0.00 0.02 0.00 95 1009.8
20260507001605 51 13 1.0 2.0 0.00 0.05 0.00 95 1009.7
20260507000603 51 0.0 0.0 0.00 0.06 0.00 95 1009.7
20260506235600 51 0.0 0.0 0.00 0.07 0.00 95 1009.8
20260506234557 51 0.0 2.0 0.00 0.07 0.00 94 1009.9
20260506233555 50 23 0.0 2.0 0.00 0.08 0.00 94 1009.7
20260506232552 50 0 0.0 2.0 0.00 0.11 0.00 94 1009.8
20260506231549 51 0 1.0 2.0 0.00 0.13 0.00 93 1009.8
20260506230546 51 23 0.0 2.0 0.00 0.13 0.00 94 1009.8
20260506225543 51 0 1.0 2.0 0.00 0.14 0.00 94 1009.9
20260506224548 51 0.0 2.0 0.00 0.14 0.00 94 1009.9
20260506223538 51 0.0 2.0 0.00 0.14 0.00 93 1009.9
20260506222536 51 0.0 2.0 0.00 0.15 0.00 92 1009.7
20260506221532 52 23 0.0 2.0 0.00 0.15 0.00 92 1009.7
20260506220531 52 14 1.0 2.0 0.00 0.15 0.00 91 1009.5
20260506215526 52 0.0 0.0 0.00 0.15 0.15 91 1009.6
20260506214524 52 85 0.0 2.0 0.00 0.17 0.15 91 1009.4
20260506213521 52 8 1.0 2.0 0.00 0.17 0.15 91 1009.2
20260506212519 53 23 0.0 2.0 0.00 0.17 0.15 90 1009.3
20260506211515 53 19 1.0 2.0 0.00 0.17 0.15 89 1009.1
20260506210613 53 341 1.0 2.0 0.00 0.17 0.15 88 1009.0
20260506205610 53 7 2.0 4.0 0.00 0.17 0.15 87 1009.1
20260506204627 54 0 1.0 2.0 0.00 0.17 0.15 86 1008.9
20260506203605 54 347 3.0 6.0 0.00 0.18 0.15 85 1008.8
20260506202602 55 286 2.0 6.0 0.00 0.19 0.15 80 1008.7
20260506201559 55 0.0 2.0 0.00 0.20 0.15 78 1008.4
20260506200556 56 4 1.0 2.0 0.00 0.20 0.15 75 1008.5
20260506195613 57 354 3.0 6.0 0.00 0.20 0.15 73 1008.3
20260506194551 57 3 5.0 11.0 0.00 0.20 0.15 73 1008.3
20260506193548 57 359 3.0 8.0 0.00 0.20 0.15 75 1007.9
20260506192545 57 15 4.0 11.0 0.00 0.20 0.15 77 1007.7
20260506191603 57 16 4.0 9.0 0.00 0.20 0.15 79 1007.5
20260506190540 57 348 3.0 7.0 0.00 0.20 0.15 81 1007.4
20260506185537 58 6 6.0 11.0 0.00 0.20 0.15 81 1007.2
20260506184534 58 357 3.0 8.0 0.00 0.20 0.15 78 1007.2
20260506183531 59 357 2.0 4.0 0.00 0.20 0.15 76 1006.8
20260506182549 61 4 2.0 4.0 0.00 0.20 0.15 73 1006.6
20260506181526 62 320 1.0 2.0 0.00 0.20 0.15 70 1006.4
20260506180523 62 0 2.0 2.0 0.00 0.20 0.15 69 1006.3
20260506175521 63 45 1.0 4.0 0.00 0.20 0.15 67 1006.3
20260506174538 65 191 0.0 2.0 0.00 0.20 0.15 61 1006.1
20260506173516 67 191 1.0 2.0 0.00 0.20 0.15 61 1006.2
20260506172633 66 143 1.0 2.0 0.00 0.20 0.15 63 1005.9
20260506171610 65 187 1.0 4.0 0.00 0.20 0.15 64 1006.0
20260506170608 64 165 2.0 4.0 0.00 0.20 0.15 67 1006.0
20260506165605 63 168 2.0 4.0 0.00 0.20 0.15 69 1005.9
20260506164601 64 180 1.0 4.0 0.00 0.20 0.15 70 1006.0
20260506163618 65 170 2.0 6.0 0.00 0.20 0.15 64 1006.1
20260506162556 65 183 2.0 4.0 0.00 0.20 0.15 61 1006.0
20260506161553 65 161 2.0 7.0 0.00 0.20 0.15 60 1006.0
20260506160550 66 201 1.0 4.0 0.00 0.20 0.15 61 1005.9
20260506155547 64 134 2.0 6.0 0.00 0.20 0.15 61 1006.1
20260506154545 64 156 2.0 6.0 0.00 0.20 0.15 61 1006.0
20260506153542 66 203 3.0 7.0 0.00 0.20 0.15 57 1006.0
20260506152539 68 170 4.0 9.0 0.00 0.20 0.15 54 1006.0
20260506151536 68 185 4.0 8.0 0.00 0.20 0.15 54 1006.0
20260506150528 68 159 3.0 9.0 0.00 0.20 0.15 53 1006.1
20260506145525 69 173 3.0 7.0 0.00 0.20 0.15 50 1006.0
20260506144537 67 190 3.0 6.0 0.00 0.20 0.15 57 1006.1
20260506143615 67 168 1.0 2.0 0.00 0.20 0.15 57 1006.2
20260506142612 68 189 2.0 4.0 0.00 0.20 0.15 53 1006.0
20260506141554 68 192 3.0 8.0 0.00 0.20 0.15 51 1006.0
20260506140611 67 180 4.0 7.0 0.00 0.20 0.15 53 1006.0
20260506135548 67 149 3.0 7.0 0.00 0.20 0.15 53 1006.2
20260506134539 66 158 1.0 4.0 0.00 0.20 0.15 52 1006.0
20260506133558 68 147 2.0 4.0 0.00 0.20 0.15 48 1006.2
20260506132528 68 180 3.0 4.0 0.00 0.20 0.15 50 1006.3
20260506131525 70 199 3.0 6.0 0.00 0.20 0.15 47 1006.3
20260506130517 71 214 1.0 4.0 0.00 0.20 0.15 45 1006.4
20260506125614 71 193 0.0 2.0 0.00 0.20 0.15 52 1006.5
20260506124612 69 164 2.0 6.0 0.00 0.20 0.15 53 1006.5
20260506123553 67 142 1.0 7.0 0.00 0.20 0.15 53 1006.5
20260506122550 64 136 1.0 4.0 0.00 0.20 0.15 56 1006.5
20260506121548 66 160 2.0 6.0 0.00 0.20 0.15 57 1006.7
20260506120539 66 45 3.0 4.0 0.00 0.20 0.15 57 1006.7
20260506115537 67 137 3.0 4.0 0.00 0.20 0.15 60 1006.8
20260506114528 65 145 3.0 6.0 0.00 0.20 0.15 60 1007.0
20260506113526 65 186 3.0 7.0 0.00 0.20 0.15 66 1007.1
20260506112518 64 135 3.0 4.0 0.00 0.20 0.15 66 1007.1
20260506111635 64 174 3.0 7.0 0.01 0.20 0.15 68 1007.4
20260506110612 63 141 2.0 7.0 0.01 0.20 0.15 72 1007.5
20260506105553 60 168 2.0 6.0 0.01 0.20 0.15 79 1007.5
20260506104550 57 184 1.0 4.0 0.01 0.20 0.15 85 1007.5
20260506103608 56 195 2.0 7.0 0.01 0.20 0.15 88 1007.6
20260506102539 58 0.0 0.0 0.01 0.20 0.15 77 1007.6
20260506101536 59 307 4.0 9.0 0.00 0.19 0.14 69 1007.7
20260506100528 66 330 3.0 7.0 0.00 0.19 0.14 61 1007.3
20260506095526 66 197 1.0 4.0 0.00 0.19 0.14 61 1007.4
20260506094517 64 288 1.0 6.0 0.00 0.19 0.14 64 1007.4
20260506093614 63 335 2.0 4.0 0.00 0.19 0.14 64 1007.4
20260506092611 64 49 1.0 2.0 0.00 0.19 0.14 64 1007.4
20260506091554 62 344 2.0 4.0 0.00 0.19 0.14 71 1007.3
20260506090610 63 295 1.0 2.0 0.00 0.19 0.14 73 1007.3
20260506085548 61 351 1.0 4.0 0.00 0.19 0.14 72 1007.2
20260506084559 62 172 1.0 2.0 0.00 0.19 0.14 73 1007.3
20260506083536 61 0 0.0 2.0 0.00 0.19 0.14 73 1007.2
20260506082529 61 163 1.0 4.0 0.00 0.19 0.14 76 1007.1
20260506081547 60 158 1.0 2.0 0.00 0.19 0.14 79 1007.1
20260506080543 59 203 0.0 2.0 0.00 0.19 0.14 83 1007.1
20260506072550 53 189 1.0 2.0 0.00 0.19 0.14 99 1007.0
20260506071547 53 191 0.0 2.0 0.00 0.19 0.14 99 1007.0
20260506070539 52 161 1.0 2.0 0.00 0.19 0.14 99 1007.0